This is the latest recevied weather packets stored in our database for station/object WB0RXX. If no packets are shown the sender has not sent any weather packets the latest 10 day(s).
| Time | Temp. | Humidity | Pressure | Rain* | Wind** | Luminosity | Snow |
|---|---|---|---|---|---|---|---|
| 1777776003 | 17.78° C | 37% | 1007.9 hPa | 0 mm | - | - | - |
| 1777775402 | 17.78° C | 36% | 1008 hPa | 0 mm | - | - | - |
| 1777774803 | 17.78° C | 35% | 1008.2 hPa | 0 mm | - | - | - |
| 1777774220 | 17.78° C | 33% | 1008.8 hPa | 0 mm | - | - | - |
| 1777773620 | 17.78° C | 34% | 1008.7 hPa | 0 mm | - | - | - |
| 1777773003 | 17.78° C | 34% | 1008.8 hPa | 0 mm | - | - | - |
| 1777772419 | 17.78° C | 36% | 1008.8 hPa | 0 mm | - | - | - |
| 1777771804 | 18.33° C | 32% | 1008.8 hPa | 0 mm | - | - | - |
| 1777771204 | 18.33° C | 34% | 1008.8 hPa | 0 mm | - | - | - |
| 1777770605 | 18.89° C | 33% | 1008.5 hPa | 0 mm | - | - | - |
| 1777770002 | 18.89° C | 32% | 1008.6 hPa | 0 mm | - | - | - |
| 1777769403 | 18.89° C | 31% | 1008.8 hPa | 0 mm | - | - | - |
| 1777768803 | 19.44° C | 32% | 1009.1 hPa | 0 mm | - | - | - |
| 1777768202 | 19.44° C | 31% | 1009.4 hPa | 0 mm | - | - | - |
| 1777767604 | 19.44° C | 31% | 1009.6 hPa | 0 mm | - | - | - |
| 1777767005 | 19.44° C | 31% | 1010 hPa | 0 mm | - | - | - |
| 1777766404 | 19.44° C | 31% | 1010.2 hPa | 0 mm | - | - | - |
| 1777765803 | 20° C | 30% | 1010.2 hPa | 0 mm | - | - | - |
| 1777765203 | 20° C | 31% | 1010.3 hPa | 0 mm | - | - | - |
| 1777764604 | 20° C | 30% | 1010.5 hPa | 0 mm | - | - | - |
| 1777764002 | 20° C | 30% | 1010.5 hPa | 0 mm | - | - | - |
| 1777763402 | 20° C | 31% | 1010.7 hPa | 0 mm | - | - | - |
| 1777762805 | 19.44° C | 32% | 1010.8 hPa | 0 mm | - | - | - |
| 1777762205 | 20° C | 30% | 1010.9 hPa | 0 mm | - | - | - |
| 1777761603 | 20° C | 30% | 1010.9 hPa | 0 mm | - | - | - |
* Rain latest hour (hover to see other rain measurements)
** Current wind speed in m/s (hover to see current wind gust speed)